Simultaneous Nadir Overpasses (SNOs) Predictions

Prediction of SNOs between LANDSAT-8 and METOP-B Satellite Orbit:

Table of predicted SNOs for the next 14.0 days since TLE Epoch: 5/7/2023
Index Date (LANDSAT-8) Time (LANDSAT-8) Lat,Lon (LANDSAT-8) SZA (LANDSAT-8 ) Date (METOP-B) Time (METOP-B) Lat,Lon (METOP-B) SZA (METOP-B ) Distance(km) Time Diff (sec)
1 05/07/2023 15:08:09 81.12, -7.86 66.41 05/07/2023 15:07:19 81.12, -7.93 66.38 1.15 50
2 05/07/2023 15:57:35 -81.14, 160.06 113.56 05/07/2023 15:57:58 -81.14, 160.06 113.55 0.38 23
3 05/10/2023 10:42:21 81.12, 58.50 65.65 05/10/2023 10:41:39 81.12, 58.43 65.62 1.11 42
4 05/10/2023 11:31:46 -81.16,-133.20 114.27 05/10/2023 11:32:17 -81.16,-133.18 114.25 0.59 31
5 05/13/2023 06:16:31 81.14, 125.34 64.99 05/13/2023 06:15:57 81.14, 125.45 64.99 1.92 34
6 05/13/2023 07:05:57 -81.16, -66.70 114.97 05/13/2023 07:06:36 -81.16, -66.51 114.93 3.30 39
7 05/16/2023 01:50:41 81.13,-168.43 64.29 05/16/2023 01:50:16 81.13,-168.39 64.28 0.79 25
8 05/16/2023 02:40:07 -81.15, -0.45 115.67 05/16/2023 02:40:55 -81.16, -0.32 115.63 2.37 48
9 05/18/2023 21:24:50 81.14,-101.72 63.69 05/18/2023 21:24:34 81.14,-101.58 63.70 2.41 16



Historial Predications of SNOs between LANDSAT-8 and METOP-B
